Content
SEND FEEDBACK

Daily
Averages
Monthly
Summary
Mexico

PUERTO MORELOS, QUINTANA ROO


Home > North America > Mexico > Quintana Roo
Elevation: 20 feet     Latitude: 20 51N     Longitude: 086 52W

WEATHER
 
SELECT A DAY
Number of Records: 167,932;   Date Range: 1/1/95 - 12/25/14
 
SHARE

PRINT THIS DATA

[ ← Previous Day ]
WEATHER ALMANAC - DECEMBER 31, 2012
[ Next Day → ]
[ °C ]   °F
Weather ElementAverageHighLow
Temperature74.6 °F78.8 °F (10:48 am)71.6 °F (1:44 am)
Dewpoint63.5 °F66.2 °F (6:40 pm)59 °F (6:42 am)
Humidity68.7 %83 % (6:40 pm)54 % (11:44 am)
Barometer30.11 in30.18 in (9:47 am)30.06 in (11:47 pm)
Wind Speed5.3 mph9.2 mph (6:42 am)
Weather ElementAverage
Visibility7 mi
Wind DirectionENE (77.4 °)

Weather ElementTotal
Precipitation---
Cooling Degree Days10.2 (Base 65)
Growing Degree Days25.2 (Base 50)
Averaged from 23 records on December 31, 2012
WEATHER CONDITIONS BREAKOUT
WIND DIRECTION BREAKOUT
WEATHER BY HOUR - DECEMBER 31, 2012
[ °C ]   °F
Local TimeTemperatureDewpointHumidityBarometerVisibilityWind DirectionWind SpeedGust SpeedPrecipitationEventsConditions
1:44 AM71.6 °F60.8 °F69 %30.14 in7.0 miEast (100°)5.8 mphClear
2:51 AM71.6 °F60.8 °F69 %30.11 in7.0 miNE (40°)5.8 mphClear
3:45 AM71.6 °F62.6 °F73 %30.11 in7.0 miNE (50°)5.8 mphClear
4:44 AM71.6 °F64.4 °F78 %30.12 in7.0 miENE (60°)5.8 mphPartly Cloudy
5:43 AM71.6 °F62.6 °F73 %30.13 in7.0 miENE (60°)5.8 mphScattered Clouds
6:42 AM73.4 °F59.0 °F61 %30.14 in7.0 miEast (90°)9.2 mphMostly Cloudy
7:44 AM73.4 °F62.6 °F69 %30.14 in7.0 miEast (90°)3.5 mphMostly Cloudy
8:47 AM75.2 °F62.6 °F65 %30.15 in7.0 miEast (90°)4.6 mphMostly Cloudy
9:47 AM75.2 °F62.6 °F65 %30.18 in7.0 miEast (100°)5.8 mphMostly Cloudy
10:48 AM78.8 °F62.6 °F57 %30.16 in7.0 miESE (110°)8.1 mphScattered Clouds
11:44 AM78.8 °F60.8 °F54 %30.14 in7.0 miEast (90°)8.1 mphScattered Clouds
12:46 PM78.8 °F62.6 °F57 %30.11 in7.0 miEast (100°)8.1 mphMostly Cloudy
1:43 PM78.8 °F60.8 °F54 %30.09 in7.0 miEast (100°)8.1 mphScattered Clouds
2:43 PM77.0 °F64.4 °F65 %30.09 in7.0 miEast (100°)5.8 mphScattered Clouds
3:42 PM77.0 °F64.4 °F65 %30.07 in7.0 miNE (40°)4.6 mphScattered Clouds
4:42 PM77.0 °F64.4 °F65 %30.08 in7.0 miNE (50°)3.5 mphScattered Clouds
5:40 PM71.6 °F64.4 °F78 %30.07 in7.0 miCalmScattered Clouds
6:40 PM71.6 °F66.2 °F83 %30.07 in7.0 miCalmScattered Clouds
7:51 PM73.4 °F66.2 °F78 %30.07 in7.0 miEast (80°)3.5 mphScattered Clouds
8:46 PM73.4 °F66.2 °F78 %30.08 in7.0 miEast (100°)4.6 mphPartly Cloudy
9:40 PM73.4 °F66.2 °F78 %30.09 in7.0 miESE (110°)5.8 mphScattered Clouds
10:44 PM75.2 °F66.2 °F73 %30.08 in7.0 miESE (110°)4.6 mphScattered Clouds
11:47 PM75.2 °F66.2 °F73 %30.06 in7.0 miESE (110°)5.8 mphMostly Cloudy
Hourly data recorded from MMUN, located miles away from Puerto Morelos, Quintana Roo







STORIES FROM OUR PARTNERS